www.pogodaiklimat.ru
ПОГОДА в Бингемтоне
Время
и дата
12:53 27.06
13:53 27.06
14:53 27.06
15:53 27.06
16:53 27.06
17:53 27.06
18:53 27.06
19:53 27.06
20:53 27.06
21:53 27.06
22:53 27.06
23:53 27.06
00:53 28.06
01:53 28.06
02:53 28.06
03:53 28.06
04:53 28.06
05:53 28.06
06:53 28.06
07:53 28.06
08:33 28.06
08:53 28.06
09:16 28.06
09:53 28.06
10:53 28.06
11:53 28.06
12:53 28.06
13:53 28.06
14:53 28.06
15:53 28.06
16:53 28.06
17:53 28.06
18:53 28.06
19:53 28.06
20:53 28.06
21:53 28.06
22:53 28.06
23:53 28.06
00:53 29.06
01:53 29.06
02:53 29.06
03:53 29.06
04:53 29.06
05:53 29.06
06:53 29.06
07:53 29.06
08:53 29.06
09:53 29.06
Ветер
(напр.,м/с)
Видим. Явления Облачность Т
(С)
Тd
(С)
f
(%)
Тe
(С)
Тes
(С)
Комфортность P
(гПа)
Po
(гПа)
Тmin
(С)
Tmax
(С)
R
(мм)
R24
(мм)
S
(см)
СЗ 3
{4}
16 км 8/8 1320 м +22.2 +11.7 51 +24 +26 комфорт 1015.2 957.8 +15.6 +22.2
СЗ 2 16 км 5/5 1500 м +22.2 +11.1 49 +24 +31 комфорт 1014.9 957.4
СЗ 2 16 км 8/8 1800 м +22.8 +10.6 46 +25 +26 комфорт 1014.6 957.1
СЗ 3 16 км 5/5 1800 м +22.2 +9.4 44 +24 +26 комфорт 1014.6 957.1
СЗ 3
{4}
16 км 2/2 1950 м +21.7 +8.3 42 +23 +26 комфорт 1014.8 957.4
С 3 16 км 2/0 2100 м
[Ac]
+19.4 +10.6 57 +20 +22 1016.0 958.4
С 2 16 км ясно +17.8 +10.6 63 +17 +18 1017.4 959.4 +17.8 +22.8
С 2 16 км ясно +15.6 +9.4 67 +15 +15 1018.4 960.0
С 1 16 км 5/0 2100 м
[Ac]
+14.4 +8.9 70 +14 +14 1019.1 960.9
СЗ 1 16 км 2/2 1950 м +15.0 +8.9 67 +15 +15 1019.2 960.9
СЗ 1 16 км 2/2 1380 м +14.4 +8.9 70 +14 +14 1019.3 960.9
СЗ 1 16 км 8/0 2100 м
[Ac]
+13.9 +9.4 74 +13 +13 1019.2 960.9
С 1 16 км 10/5 1500 м
[Ac]
+13.9 +9.4 74 +13 +13 1019.4 961.3 +13.3 +17.8
С 1 16 км 10/2 1320 м
[Ac]
+13.3 +9.4 77 +12 +12 1019.9 961.6
СЗ 1 16 км 10/0 2100 м
[Ac]
+12.8 +9.4 80 +12 +12 1020.1 961.9
СЗ 1 16 км ясно +11.7 +8.9 83 +11 +11 1020.2 961.9
СЗ 1 16 км ясно +11.7 +8.9 83 +10 +10 1020.6 962.2
СЗ 1 16 км ясно +12.2 +9.4 83 +11 +11 1021.5 962.9
СЗ 1 16 км ясно +13.3 +10.0 80 +12 +13 1022.1 963.5 +11.1 +13.9
С 2 16 км 2/2 690 м +15.0 +8.9 67 +14 +15 1022.3 963.8
СЗ 2 16 км 8/8 870 м +14.4 +8.9 70 +13 +14 963.8
СЗ 2 16 км 8/8 780 м +14.4 +8.9 70 +13 +14 1022.7 963.8
С 2 16 км 5/5 870 м +16.7 +9.4 62 +16 +20 963.8
СЗ 2 16 км ясно +16.7 +9.4 62 +16 +22 1022.7 964.1
З 1 16 км 2/2 1050 м +17.8 +9.4 58 +18 +29 1022.9 964.1
С 1 16 км 5/5 1230 м +19.4 +10.0 55 +21 +28 комфорт 1022.8 964.5
СЗ 2 16 км 2/2 1440 м +19.4 +9.4 52 +20 +31 1022.7 964.1 +13.3 +20.6
С 2 16 км ясно +20.0 +9.4 50 +21 +34 комфорт 1022.5 963.8
З 1 16 км ясно +20.6 +9.4 49 +23 +39 комфорт 1022.4 963.8
С 2 16 км 8/8 1650 м +21.7 +9.4 45 +23 +25 комфорт 1022.2 963.8
ЮЗ 1 16 км 8/8 1650 м +20.0 +9.4 50 +22 +24 комфорт 1022.1 963.5
штиль 0 16 км 10/10 1650 м +19.4 +10.6 57 +20 +20 1022.1 963.5
штиль 0 16 км 2/2 1500 м +19.4 +10.6 57 +20 +22 1022.1 963.8 +18.3 +22.2
Ю 1 16 км ясно +18.3 +9.4 56 +19 +19 1022.2 963.8
Ю 1 16 км ясно +17.2 +8.9 58 +18 +18 1022.8 964.1
штиль 0 16 км ясно +17.2 +9.4 60 +17 +17 1022.8 964.5
Ю 1 16 км ясно +15.6 +10.0 69 +16 +16 1023.0 964.5
Ю 1 16 км ясно +14.4 +10.6 78 +14 +14 1022.8 964.5
штиль 0 16 км ясно +14.4 +10.6 78 +14 +14 1022.9 964.5 +14.4 +19.4
ЮВ 1 16 км ясно +12.2 +10.6 90 +11 +11 1022.6 964.1
Ю 1 16 км ясно +13.3 +9.4 77 +12 +12 1022.2 963.8
Ю 1 16 км ясно +12.8 +9.4 80 +12 +12 1022.5 964.1
Ю 1 16 км ясно +12.8 +10.0 83 +12 +12 1023.1 964.5
Ю 1 16 км ясно +13.3 +10.6 84 +13 +13 1023.3 964.8
Ю 1 16 км ясно +15.6 +11.1 75 +15 +16 1023.2 964.8 +12.2 +15.6
ЮЗ 1 16 км ясно +17.2 +11.7 70 +17 +21 1023.6 965.1
ЮЗ 2 16 км ясно +19.4 +11.1 59 +21 +26 комфорт 1023.0 964.8
З 2 16 км ясно +21.1 +11.1 53 +23 +29 комфорт 1022.9 964.8
Местоположение метеостанции Binghamton Regional Airport: широта 42.2078 долгота -75.9814 высота над уровнем моря 496 м.
В архиве по умолчанию представлена погода в Бингемтоне за последние 1-2 суток. Обновление информации о фактической погоде в базе происходит ежечасно! Архивные данные за месяц целиком и за предыдущие месяцы Вы можете получить, выбрав интересующий диапазон дат из раскрывающегося списка и нажав кнопку "Ввод!".
Внимание! Архив погоды МЕТАР в базе сайта по станциям, не включенным в климатический монитор, хранится не более 60 дней. Нет смысла пытаться выбрать более раннюю дату.
*Определитесь, кто Вы:
Внимание! Время в таблицах - местное (без учета летнего времени). Для получения всемирного времени необходимо вычесть поправку, которая равна -5 ч.
Смотрите также архив погоды в соседних городах и на ближайших метеорологических станциях:
Партнеры нашего сайта:      
Пояснения к столбцам:
  • Ветер - указаны скорость ветра в м/с - средняя за 10 мин, порывы в срок и между сроками (в фигурных скобках) и направление, откуда дует ветер: С - северный,
  • СВ - северо-восточный, В - восточный, ЮВ - юго-восточный, Ю - южный, ЮЗ - юго-западный, З - западный, СЗ - северо-западный.
  • Видимость - горизонтальная дальность видимости в метрах или километрах. При видимости от 1 до 10 км при отсутствии осадков обычно наблюдается дымка, при ухудшении видимости до 1 км и менее - туман. В сухую погоду видимость может ухудшаться дымом, пылью или мглою.
  • Явления - указаны атмосферные явления, наблюдавшиеся в срок или в последний час перед сроком; фигурными скобками обозначены явления, наблюдавшиеся между сроками (за 1-3 часа до срока); квадратными скобками обозначены град или гололедные отложения с указанием их диаметра в мм.
  • Облачность - указаны через наклонную черту общая и нижняя облачность в баллах и высота нижней границы облаков в метрах; квадратными скобками обозначены формы облаков: Ci - перистые, Cs - перисто-слоистые, Cc - перисто-кучевые, Ac - высококучевые, As - высокослоистые, Sc - слоисто-кучевые, Ns - слоисто-дождевые, Cu - кучевые, Cb - кучево-дождевые. Подробнее классификацию облаков см. в Атласе облаков (PDF).
  • T - Температура воздуха - температура, измеренная на высоте 2 м над землей.
  • Td - Температура точки росы - температура, при понижении до которой содержащийся в воздухе водяной пар достигнет насыщения.
  • f - Относительная влажность воздуха - влажноcть воздуха, измеренная на высоте 2 м над землей.
  • Te - Эффективная температура - температура, которую ощущает одетый по сезону человек в тени. Характеристика душности погоды. При расчете учитывается влияние влажности воздуха и скорости ветра на теплоощущения человека.
  • Tes - Эффективная температура на солнце - температура, которую ощущает человек, с поправкой на солнечный нагрев. Характеристика знойности погоды. Зависит от высоты солнца над горизонтом, облачности и скорости ветра. Ночью, в пасмурную погоду, а также при ветре 12 м/с и более поправка равна нулю.
  • P - Атмосферное давление - приведенное к уровню моря атмосферное давление.
  • Po - Атмосферное давление - измеренное на уровне метеостанции атмосферное давление.
  • Tmin - Минимальная температура - минимум температуры воздуха на высоте 2 м над землей.
  • Tmax - Максимальная температура - максимум температуры воздуха на высоте 2 м над землей.
  • R - Количество осадков - Количество выпавших осадков за период времени, мм. При наведении курсора мыши на число - период времени, за который выпало указанное количество осадков.
  • R24 - Количество осадков - Количество выпавших осадков за 24 часа, мм.
  • S - Снежный покров - Высота снежного покрова, см. При наведении курсора мыши на число - состояние снежного покрова и степень покрытия местности в баллах.